• In Deutschland
  • Länderverzeichnis
  • Für 7 Tage
  • Wassertemperatur
  • Satellitenkarten
  • Wetterkarte
  • Widgets
  • user-avatar
    Anmelden

    Stündliche Wetter Algier

    Heute, 27 Juni, Dienstag

    Zeit Temperatur Niederschläge Wind Luftdruck Luftfeuchtigkeit
    00:00 +29°C° 0 mm 1 m/S 746 mmHg 51%
    01:00 +29°C° 0 mm 1 m/S 746 mmHg 51%
    02:00 +29°C° 0 mm 1 m/S 746 mmHg 50%
    03:00 +28°C° 0 mm 1 m/S 745 mmHg 50%
    04:00 +30°C° 0 mm 1 m/S 745 mmHg 45%
    05:00 +31°C° 0 mm 2 m/S 745 mmHg 40%
    06:00 +34°C° 0 mm 2 m/S 745 mmHg 35%
    07:00 +36°C° 0 mm 2 m/S 745 mmHg 31%
    08:00 +38°C° 0 mm 2 m/S 746 mmHg 27%
    09:00 +40°C° 0 mm 2 m/S 746 mmHg 24%
    10:00 +41°C° 0 mm 2 m/S 745 mmHg 23%
    11:00 +42°C° 0 mm 3 m/S 745 mmHg 22%
    12:00 +43°C° 0 mm 3 m/S 745 mmHg 22%
    13:00 +42°C° 0 mm 3 m/S 745 mmHg 25%
    14:00 +40°C° 0 mm 3 m/S 744 mmHg 28%
    15:00 +38°C° 0 mm 3 m/S 744 mmHg 31%
    16:00 +37°C° 0 mm 3 m/S 744 mmHg 35%
    17:00 +36°C° 0 mm 2 m/S 744 mmHg 39%
    18:00 +35°C° 0 mm 2 m/S 744 mmHg 43%
    19:00 +34°C° 0 mm 2 m/S 744 mmHg 46%
    20:00 +33°C° 0 mm 3 m/S 744 mmHg 48%
    21:00 +31°C° 0 mm 3 m/S 744 mmHg 51%
    22:00 +31°C° 0 mm 3 m/S 745 mmHg 49%
    23:00 +32°C° 0 mm 4 m/S 745 mmHg 47%

    Morgen, 28 Juni, Mittwoch

    Zeit Temperatur Niederschläge Wind Luftdruck Luftfeuchtigkeit
    00:00 +32°C° 0 mm 5 m/S 745 mmHg 45%
    01:00 +30°C° 0 mm 5 m/S 745 mmHg 44%
    02:00 +30°C° 0 mm 5 m/S 745 mmHg 44%
    03:00 +29°C° 0 mm 6 m/S 745 mmHg 43%
    04:00 +29°C° 0 mm 6 m/S 745 mmHg 42%
    05:00 +29°C° 0 mm 6 m/S 745 mmHg 41%
    06:00 +30°C° 0 mm 6 m/S 746 mmHg 41%
    07:00 +32°C° 0 mm 6 m/S 746 mmHg 35%
    08:00 +34°C° 0 mm 7 m/S 746 mmHg 29%
    09:00 +35°C° 0 mm 7 m/S 746 mmHg 23%
    10:00 +36°C° 0 mm 7 m/S 746 mmHg 23%
    11:00 +38°C° 0 mm 8 m/S 746 mmHg 24%
    12:00 +39°C° 0 mm 8 m/S 746 mmHg 24%
    13:00 +38°C° 0 mm 8 m/S 745 mmHg 26%
    14:00 +37°C° 0 mm 8 m/S 745 mmHg 29%
    15:00 +37°C° 0 mm 9 m/S 744 mmHg 32%
    16:00 +35°C° 0 mm 8 m/S 745 mmHg 34%
    17:00 +34°C° 0 mm 8 m/S 745 mmHg 36%
    18:00 +32°C° 0 mm 8 m/S 745 mmHg 39%
    19:00 +30°C° 0 mm 7 m/S 745 mmHg 43%
    20:00 +28°C° 0 mm 6 m/S 746 mmHg 47%
    21:00 +26°C° 0 mm 5 m/S 746 mmHg 51%
    22:00 +25°C° 0 mm 5 m/S 746 mmHg 48%
    23:00 +25°C° 0 mm 5 m/S 746 mmHg 45%

    übermorgen, 29 Juni, Donnerstag

    Zeit Temperatur Niederschläge Wind Luftdruck Luftfeuchtigkeit
    00:00 +23°C° 0 mm 4 m/S 746 mmHg 43%
    01:00 +23°C° 0 mm 4 m/S 746 mmHg 41%
    02:00 +23°C° 0 mm 5 m/S 746 mmHg 40%
    03:00 +23°C° 0 mm 5 m/S 745 mmHg 39%
    04:00 +25°C° 0 mm 5 m/S 746 mmHg 39%
    05:00 +26°C° 0 mm 5 m/S 746 mmHg 38%
    06:00 +26°C° 0 mm 5 m/S 746 mmHg 38%
    07:00 +28°C° 0 mm 5 m/S 746 mmHg 38%
    08:00 +29°C° 0 mm 5 m/S 746 mmHg 37%
    09:00 +32°C° 0 mm 5 m/S 746 mmHg 37%
    10:00 +33°C° 0 mm 5 m/S 746 mmHg 35%
    11:00 +34°C° 0 mm 5 m/S 746 mmHg 33%
    12:00 +35°C° 0 mm 6 m/S 746 mmHg 31%
    13:00 +35°C° 0 mm 6 m/S 746 mmHg 35%
    14:00 +34°C° 0 mm 6 m/S 745 mmHg 40%
    15:00 +34°C° 0 mm 5 m/S 745 mmHg 44%
    16:00 +32°C° 0 mm 5 m/S 745 mmHg 52%
    17:00 +30°C° 0 mm 4 m/S 745 mmHg 59%
    18:00 +28°C° 0 mm 3 m/S 744 mmHg 67%
    19:00 +27°C° 0 mm 3 m/S 745 mmHg 72%
    20:00 +26°C° 0 mm 2 m/S 745 mmHg 77%
    21:00 +25°C° 0 mm 1 m/S 745 mmHg 82%
    22:00 +25°C° 0 mm 1 m/S 745 mmHg 83%
    23:00 +24°C° 0 mm 1 m/S 745 mmHg 84%

    30 Juni, Freitag

    Zeit Temperatur Niederschläge Wind Luftdruck Luftfeuchtigkeit
    00:00 +24°C° 0 mm 1 m/S 745 mmHg 85%
    01:00 +24°C° 0 mm 1 m/S 744 mmHg 86%
    02:00 +23°C° 0 mm 1 m/S 744 mmHg 88%
    03:00 +23°C° 0 mm 1 m/S 744 mmHg 89%
    04:00 +23°C° 0 mm 1 m/S 744 mmHg 85%
    05:00 +24°C° 0 mm 1 m/S 744 mmHg 81%
    06:00 +25°C° 0 mm 1 m/S 745 mmHg 77%
    07:00 +26°C° 0 mm 1 m/S 745 mmHg 67%
    08:00 +28°C° 0 mm 1 m/S 745 mmHg 58%
    09:00 +29°C° 0 mm 1 m/S 745 mmHg 48%
    10:00 +30°C° 0 mm 2 m/S 745 mmHg 45%
    11:00 +31°C° 0 mm 2 m/S 745 mmHg 41%
    12:00 +32°C° 0 mm 2 m/S 745 mmHg 38%
    13:00 +33°C° 0 mm 3 m/S 745 mmHg 39%
    14:00 +33°C° 0 mm 3 m/S 745 mmHg 40%
    15:00 +33°C° 0 mm 4 m/S 745 mmHg 40%
    16:00 +30°C° 0,2 mm 4 m/S 746 mmHg 46%
    17:00 +28°C° 0,2 mm 4 m/S 746 mmHg 52%
    18:00 +27°C° 0,2 mm 4 m/S 747 mmHg 58%
    19:00 +25°C° 0 mm 4 m/S 747 mmHg 64%
    20:00 +23°C° 0 mm 4 m/S 748 mmHg 69%
    21:00 +22°C° 0 mm 3 m/S 749 mmHg 75%
    22:00 +22°C° 0 mm 3 m/S 749 mmHg 75%
    23:00 +22°C° 0 mm 3 m/S 748 mmHg 75%

    1 Juli, Samstag

    Zeit Temperatur Niederschläge Wind Luftdruck Luftfeuchtigkeit
    00:00 +22°C° 0 mm 3 m/S 748 mmHg 75%
    01:00 +21°C° 0 mm 3 m/S 748 mmHg 78%
    02:00 +21°C° 0 mm 3 m/S 748 mmHg 82%
    03:00 +21°C° 0 mm 3 m/S 748 mmHg 85%
    04:00 +21°C° 0 mm 3 m/S 749 mmHg 81%
    05:00 +22°C° 0 mm 3 m/S 749 mmHg 78%
    06:00 +24°C° 0 mm 3 m/S 750 mmHg 74%
    07:00 +25°C° 0 mm 3 m/S 750 mmHg 65%
    08:00 +26°C° 0 mm 3 m/S 750 mmHg 57%
    09:00 +28°C° 0 mm 3 m/S 750 mmHg 48%
    10:00 +28°C° 0 mm 4 m/S 750 mmHg 44%
    11:00 +29°C° 0 mm 4 m/S 750 mmHg 40%
    12:00 +30°C° 0 mm 5 m/S 751 mmHg 36%
    13:00 +30°C° 0 mm 5 m/S 751 mmHg 37%
    14:00 +30°C° 0 mm 5 m/S 751 mmHg 39%
    15:00 +30°C° 0 mm 6 m/S 751 mmHg 40%
    16:00 +28°C° 0 mm 5 m/S 751 mmHg 46%
    17:00 +27°C° 0 mm 5 m/S 751 mmHg 53%
    18:00 +26°C° 0 mm 4 m/S 751 mmHg 59%
    19:00 +25°C° 0 mm 4 m/S 752 mmHg 67%
    20:00 +22°C° 0 mm 3 m/S 752 mmHg 76%
    21:00 +21°C° 0 mm 2 m/S 753 mmHg 84%
    22:00 +20°C° 0 mm 2 m/S 752 mmHg 86%
    23:00 +20°C° 0 mm 1 m/S 752 mmHg 89%

    2 Juli, Sonntag

    Zeit Temperatur Niederschläge Wind Luftdruck Luftfeuchtigkeit
    00:00 +20°C° 0 mm 1 m/S 752 mmHg 92%
    01:00 +20°C° 0 mm 1 m/S 752 mmHg 92%
    02:00 +18°C° 0 mm 2 m/S 752 mmHg 92%
    03:00 +18°C° 0 mm 2 m/S 752 mmHg 92%
    04:00 +19°C° 0 mm 2 m/S 752 mmHg 88%
    05:00 +20°C° 0 mm 3 m/S 752 mmHg 83%
    06:00 +21°C° 0 mm 3 m/S 753 mmHg 78%
    07:00 +23°C° 0 mm 4 m/S 753 mmHg 69%
    08:00 +25°C° 0 mm 4 m/S 753 mmHg 60%
    09:00 +27°C° 0 mm 5 m/S 753 mmHg 51%
    10:00 +28°C° 0 mm 5 m/S 753 mmHg 48%
    11:00 +29°C° 0 mm 6 m/S 753 mmHg 44%
    12:00 +32°C° 0 mm 7 m/S 752 mmHg 41%
    13:00 +32°C° 0 mm 7 m/S 752 mmHg 42%
    14:00 +32°C° 0 mm 7 m/S 752 mmHg 43%
    15:00 +32°C° 0 mm 8 m/S 752 mmHg 45%
    16:00 +29°C° 0 mm 7 m/S 752 mmHg 49%
    17:00 +28°C° 0 mm 7 m/S 752 mmHg 53%
    18:00 +27°C° 0 mm 7 m/S 752 mmHg 57%
    19:00 +26°C° 0 mm 7 m/S 752 mmHg 64%
    20:00 +23°C° 0 mm 6 m/S 753 mmHg 71%
    21:00 +21°C° 0 mm 5 m/S 753 mmHg 79%
    22:00 +21°C° 0 mm 5 m/S 753 mmHg 82%
    23:00 +20°C° 0 mm 4 m/S 753 mmHg 85%
    Mehr zeigen